Starlink 3626

operational
NORAD ID: 51792 Int'l Des: 2022-017 Owner: SPXS Country: US Constellation: starlink
LEOCIRCULAR

Starlink 3626について

説明を読み込み中...

リアルタイム位置

3D地球を読み込み中...

次回通過

高度履歴

Altitude vs Time

uPlot chart will show altitude changes over time

軌道要素

1 51792U 22017AA 25352.29183814 -.00000437 00000-0 -93785-5 0 9992
2 51792 53.2194 354.5298 0001392 93.7144 266.4007 15.08841047211680
Epoch: Dec 18, 2025 • Age: 23 hours

現在のステータス

高度 540.1 km
速度 7.59 km/s
衛星直下点 2.81°N, 10.55°W
打ち上げ日 Feb 25, 2022
運用期間 3.8 years
タイプ internet

技術仕様

分類 Payload
質量 297.00 kg
乾燥質量 275.00 kg
総質量 297.00 kg
長さ 0.20 m
直径 2.80 m
スパン 9.00 m
形状 Box + pan
製造者 SPXS
バスタイプ Starlink
フェーズステータス In Orbit
所有者/国 SPXS/US

大規模コンステレーション

Loading constellations...